Regional Weather Roundup
Issued by NWS Charleston, WV

Home | Current Version | Previous Version | Graphics & Text | Print | Product List | Glossary On
Versions: 1 2 3 4 5 6 7 8 9 10 11 12 13 14 15 16 17 18 19 20 21 22 23 24 25 26 27 28 29 30 31 32 33 34 35 36 37 38 39 40 41 42 43 44 45 46 47 48 49 50
000
ASUS41 KRLX 210810
RWRRLX
West Virginia Regional Weather Roundup
National Weather Service Charleston WV
400 AM EDT SUN SEP 21 2014

Note: "fair" indicates few or no clouds below 12,000 feet with no
significant weather and/or obstructions to visibility.

WVZ003-210900-
Northern Panhandle of West Virginia

CITY           SKY/WX    TMP DP  RH WIND       PRES   REMARKS
WHEELING       CLOUDY    67  62  84 S10       29.87F
$$

WVZ009-210900-
Northwest West Virginia

CITY           SKY/WX    TMP DP  RH WIND       PRES   REMARKS
PARKERSBURG    PTCLDY    66  62  87 S7        29.91F
$$

WVZ006-210900-
Western West Virginia

CITY           SKY/WX    TMP DP  RH WIND       PRES   REMARKS
HUNTINGTON     CLEAR     65  63  93 S7        29.91F
$$

WVZ015-210900-
West Central West Virginia

CITY           SKY/WX    TMP DP  RH WIND       PRES   REMARKS
CHARLESTON     CLEAR     61  61 100 SE3       29.92F
$$

WVZ031-210900-
North Central West Virginia

CITY           SKY/WX    TMP DP  RH WIND       PRES   REMARKS
CLARKSBURG     CLEAR     63  58  83 CALM      29.91F
MORGANTOWN     CLEAR     68  57  68 SW5       29.91F
$$

WVZ035-042-045-210900-
South Central West Virginia

CITY           SKY/WX    TMP DP  RH WIND       PRES   REMARKS
BECKLEY        PTCLDY    57  54  89 CALM      30.01F
BLUEFIELD      CLEAR     59  53  80 SW5       30.04F
LEWISBURG      FOG       54  52  94 CALM      30.02S VSB 1/4
$$

WVZ047-210900-
Northern Mountains of West Virginia

CITY           SKY/WX    TMP DP  RH WIND       PRES   REMARKS
ELKINS         FOG       52  52 100 CALM      29.99S VSB 1
$$

WVZ052-210900-
Eastern Panhandle of West Virginia

CITY           SKY/WX    TMP DP  RH WIND       PRES   REMARKS
MARTINSBURG    CLEAR     57  53  86 CALM      29.92F
PETERSBURG     CLEAR     55  53  94 CALM      29.96S FOG
$$



USA.gov is the U.S. government's official web portal to all federal, state and local government web resources and services.